Location: Beaver Brook Station
(42.3793°N, 71.2203°W)
Time: 02:09:18
(UTC+00:00)

Aureole 3 - Pass Details

Date: 29 October 2020
Orbit: 382 x 1232 km, 82.5° (Epoch: 25 November)

Event Time Altitude Azimuth Distance (km) Brightness Sun altitude
Rises 22:31:38 0° 185° (S) 2,406 6.8 -9.8°
Reaches altitude 10° 22:33:44 10° 185° (S) 1,477 5.7 -10.2°
Maximum altitude 22:36:51 82° 98° (E) 398 2.5 -10.8°
Drops below altitude 10° 22:39:49 10° 10° (N) 1,413 5.2 -11.3°
Sets 22:41:48 0° 9° (N) 2,288 6.3 -11.7°
